User: anonymous   Login
Location: Oberwangen
(47.4286°N, 8.9679°E)
Time: 09:58:26
(UTC+00:00)
Language:

BREEZE-M DEB (TANK) - Orbit

View from above orbital plane
View from above orbital plane
View from above satellite
View from above satellite

Ground track
Ground track

The orbit data is extracted from the following two-line orbital elements,

1 37220U 10061C   21259.65630448  .00000455  00000-0  21333-3 0  9996
2 37220  49.3431 139.2385 5465769 152.7272 251.7403  4.80688384188883
Epoch (UTC): 16 September 2021 15:45:04
Eccentricity: 0.5465769
inclination: 49.3431°
perigee height: 346 km
apogee height: 16558 km
right ascension of ascending node: 139.2385°
argument of perigee: 152.7272°
revolutions per day: 4.80688384
mean anomaly at epoch: 251.7403°
orbit number at epoch: 18888

The dashed part of the orbit path shows where the satellite is in the earth's shadow,  

DLR